RH
100 97 91 88 87 67 72 64 71 70 69 56 55 62 99 100 97 100 100 94 100 90 99 99 100 98 99 99 96 52 100 99 99 96 96 92 78 78 82 80 81 81 80 40 33 49 59 72 60 51 62 64 57 45
88 92 90 88 89 88 69 52 76 86 74 73 50 49 100 100 100 94 100 100 100 100 99 99 100 100 100 99 97 59 93 90 84 81 76 78 58 65 87 93 90 79 64 48 81 71 80 73 68 51 38 32 30 26
100 99 99 98 96 98 86 45 61 84 86 47 55 43 71 100 100 96 92 100 100 99 100 100 92 99 99 100 79 57 91 96 98 92 86 82 67 64 74 64 84 86 82 70 81 73 71 68 60 49 41 37 31 28
95 95 100 100 99 99 95 57 43 64 92 68 73 61 47 92 85 97 100 100 100 99 100 93 100 99 98 99 100 79 100 100 100 100 96 93 99 77 75 75 57 86 93 94 92 84 75 68 68 60 48 35 29 29
95 98 100 100 100 99 94 70 34 55 82 97 86 60 48 81 100 100 100 100 98 100 81 74 83 95 98 100 77 89 97 98 99 98 96 98 100 99 93 93 61 44 66 89 95 98 84 72 56 44 38 41 58 59
100 96 90 93 97 98 94 88 33 43 61 100 100 100 59 91 99 97 98 100 100 100 100 75 63 87 90 98 100 95 99 99 98 97 97 95 99 98 87 62 71 71 78 99 98 93 73 66 63 57 53 65 67 65
79 93 98 100 100 100 96 77 30 41 78 100 100 100 59 88 97 100 99 100 89 96 100 90 78 63 100 90 96 100 100 81 91 98 99 98 100 98 82 86 100 99 90 95 95 88 84 76 63 63 69 69 69 68
98 100 100 100 100 100 100 82 34 34 49 100 100 91 45 85 98 100 100 100 98 99 97 83 98 86 98 85 80 100 100 100 95 88 98 99 99 96 98 89 99 99 100 88 82 85 78 50 58 73 67 63 52 30
100 100 100 100 100 100 100 87 40 31 38 100 96 76 46 76 100 100 100 100 98 100 97 100 76 57 81 74 100 100 100 99 99 98 100 100 97 89 89 100 97 97 91 82 84 58 48 67 84 78 66 52 31 24
100 100 100 100 100 100 100 76 46 28 46 100 100 95 54 76 100 100 100 100 100 100 100 92 77 37 53 64 91 98 96 100 100 98 100 99 89 97 87 91 98 91 97 100 98 100 94 79 77 67 37 36 27 22
100 100 100 100 100 100 100 92 62 38 31 96 100 85 70 81 95 100 100 100 100 100 100 100 87 41 65 74 60 91 98 99 99 99 100 100 90 81 92 92 84 83 99 96 94 100 93 75 45 34 32 29 27 29
100 100 100 100 100 100 100 98 38 28 32 79 98 99 91 86 100 100 100 100 99 97 98 98 79 58 99 100 100 100 100 99 98 100 99 82 74 77 70 63 44 48 44 35 45 44 43 38 33 33 32 32 35 36
100 100 99 100 100 100 100 94 25 26 32 63 92 100 100 100 100 100 99 95 100 70 52 80 90 76 64 93 98 100 100 100 100 98 80 64 71 68 55 51 48 46 36 39 39 36 36 37 38 36 39 43 42 24
86 94 94 96 100 100 100 100 31 30 46 56 97 100 100 100 100 91 83 100 88 38 41 88 81 81 67 73 89 93 95 98 91 81 63 48 42 40 46 48 52 45 42 38 39 40 41 42 45 47 44 20 11 12
58 48 40 54 87 100 100 100 36 28 40 50 96 100 100 95 93 77 94 98 88 58 86 100 90 77 67 68 72 67 71 62 57 50 41 33 32 37 37 33 31 31 36 38 40 43 43 43 42 24 14 13 12 13
50 56 68 76 64 100 100 100 59 36 41 48 76 100 100 100 87 57 56 84 71 94 100 100 100 100 100 100 85 66 47 43 41 37 34 34 42 32 27 30 41 41 41 33 26 23 22 23 20 17 17 16 17 19
67 91 98 85 100 100 100 100 77 48 56 49 60 90 100 100 83 57 63 76 94 95 96 100 96 100 92 72 44 38 43 46 46 48 48 33 29 36 42 37 24 13 10 10 12 17 18 20 19 20 25 28 28 29
90 100 100 90 100 100 100 99 92 54 58 51 49 90 99 84 74 84 78 78 91 86 97 100 82 69 56 54 53 47 43 45 58 62 46 35 31 20 14 14 14 14 16 19 19 17 20 28 35 37 39 39 37 33
98 100 100 94 87 85 85 89 57 37 38 63 88 100 100 97 82 90 68 94 100 100 100 100 100 95 85 65 65 68 83 65 52 41 28 20 20 22 23 23 24 25 28 37 44 48 49 50 50 55 56 48 28 19
100 100 100 99 78 89 71 64 38 29 43 96 100 100 100 83 56 75 100 99 92 94 92 81 75 76 72 85 96 80 58 41 34 31 31 33 32 31 31 33 36 38 36 33 48 56 51 60 70 62 43 34 30 23
100 100 100 100 84 83 48 42 36 34 78 100 100 100 100 100 92 91 100 89 99 97 86 78 83 98 100 93 72 60 51 43 36 31 34 39 38 40 41 39 30 26 38 41 45 48 50 50 44 37 32 23 17 21
100 100 100 100 100 91 48 34 39 44 86 100 100 100 100 100 96 92 100 87 94 87 91 100 100 100 97 74 61 48 43 43 39 37 38 45 53 50 44 40 37 35 36 36 35 28 24 14 10 10 14 21 26 21
100 100 100 100 100 100 81 40 42 67 97 100 100 100 100 100 97 82 100 100 100 100 100 100 100 100 100 81 73 63 57 47 47 50 46 45 45 44 40 38 35 35 34 25 14 6 6 11 16 15 13 14 28 44
100 100 100 100 100 94 63 59 85 89 98 100 100 100 91 100 88 96 100 100 100 100 99 100 100 100 100 100 100 95 80 72 54 49 53 54 51 42 32 18 8 6 6 6 7 8 8 9 10 21 38 42 52 54
100 100 98 83 84 99 60 56 98 99 100 100 100 100 92 87 100 100 100 100 100 100 100 100 100 100 97 97 97 81 73 73 70 46 33 29 25 16 10 9 6 6 7 8 13 17 26 40 34 33 49 81 94 83
100 100 94 60 71 68 46 65 91 96 100 100 100 100 100 100 100 100 100 100 100 96 100 100 99 95 94 91 87 66 36 25 17 13 10 8 7 6 6 7 10 15 18 25 26 27 30 38 41 53 72 70 74 87
88 98 94 94 65 53 68 79 94 99 100 100 100 100 100 100 100 100 99 99 100 97 95 98 90 70 46 28 26 27 21 12 7 7 6 6 6 8 10 14 30 48 53 53 48 42 41 55 60 57 75 83 83 86
100 100 100 100 100 99 98 100 100 100 98 100 99 100 100 100 100 100 100 100 86 62 38 29 24 20 17 16 14 11 8 7 6 6 8 10 13 15 15 23 43 45 45 49 61 49 40 41 43 70 85 82 77 87
99 100 100 100 100 100 100 94 99 99 96 96 100 100 100 100 100 96 84 63 40 24 17 15 14 14 13 12 11 10 9 10 10 13 14 14 13 16 25 33 33 33 44 54 60 60 58 60 71 85 81 76 75 79
97 98 98 100 96 90 100 100 100 100 100 100 100 100 97 85 60 39 28 24 20 19 19 20 21 18 14 14 14 14 14 15 16 16 16 16 16 19 29 34 35 46 65 67 71 78 87 90 91 93 96 98 100 100
99 100 100 100 100 100 97 99 99 99 97 87 74 56 44 38 33 30 27 27 28 28 27 25 22 18 18 20 20 19 19 19 21 23 24 26 27 29 30 34 39 45 63 81 86 84 82 83 86 91 96 97 97 96
99 98 98 96 88 80 71 64 59 53 45 38 35 31 34 32 30 28 32 35 35 33 31 29 28 28 26 24 20 18 17 16 15 13 14 18 25 46 47 34 32 48 54 64 83 94 96 96 99 100 98 98 97 98
84 74 67 62 59 57 58 56 52 45 40 35 34 39 41 44 46 45 43 42 41 38 36 36 36 32 28 25 21 18 17 14 13 13 12 13 13 22 44 57 52 51 60 72 82 94 98 97 92 90 92 91 83 80
Wind_Speed
39 36 37 36 33 32 36 36 37 37 38 46 48 47 51 51 66 61 71 62 52 70 57 53 57 60 62 59 65 61 53 47 57 58 52 48 45 44 42 39 33 29 29 30 29 26 19 23 17 18 21 23 23 23
42 35 33 35 34 33 33 38 38 38 37 43 40 45 56 51 51 73 61 68 50 49 48 45 52 45 58 50 59 58 57 53 56 57 54 44 38 37 36 37 36 34 32 29 26 20 18 23 18 19 21 20 23 24
33 33 34 33 32 31 32 36 40 39 37 38 38 41 53 56 48 74 68 67 68 52 48 48 53 46 37 46 58 59 56 54 59 53 53 46 41 35 35 33 31 28 32 37 27 25 25 22 23 25 24 24 25 26
35 35 34 33 32 31 28 33 42 40 39 35 38 38 47 59 55 76 51 55 75 66 51 56 52 53 40 46 37 59 46 47 55 61 58 52 47 41 37 36 30 29 35 39 32 25 28 26 28 27 25 25 25 28
34 34 35 37 38 37 34 33 44 41 40 36 28 34 42 56 48 59 44 49 77 65 64 59 52 58 56 35 43 51 56 48 43 53 59 53 50 43 40 40 36 36 40 40 31 28 32 30 29 27 28 30 28 29
33 34 33 33 31 30 35 34 43 43 35 29 29 30 39 54 45 54 73 51 56 54 55 56 41 49 59 58 43 48 42 38 39 51 50 48 42 48 44 43 43 42 40 33 33 33 32 29 26 28 32 32 33 33
30 31 29 26 25 27 31 36 43 43 30 35 33 34 50 55 50 51 44 47 56 54 50 51 46 55 61 46 41 46 39 45 48 44 42 46 46 47 45 44 39 38 38 35 35 35 29 29 31 33 34 35 36 35
26 26 26 26 25 24 30 35 43 45 36 36 33 31 56 57 55 53 43 44 55 64 60 58 48 53 58 52 55 50 29 40 46 51 43 44 39 42 41 36 35 35 34 35 32 35 34 34 34 33 33 34 35 34
25 26 27 28 27 25 29 33 39 39 37 34 37 36 56 58 62 52 46 47 59 62 54 54 52 56 53 58 47 52 48 41 33 37 44 46 44 41 38 31 30 28 26 28 32 34 34 35 35 37 36 36 36 37
24 23 24 27 29 27 30 35 38 40 40 34 30 33 54 61 64 48 49 45 52 58 52 50 51 48 55 59 54 52 47 46 42 44 36 31 27 34 36 35 36 31 28 32 31 30 34 37 39 38 37 40 41 40
21 19 18 22 29 30 30 36 39 41 43 36 31 29 40 54 49 50 47 41 42 57 52 47 45 50 48 50 55 47 48 48 47 37 37 34 29 23 15 14 19 27 33 35 35 36 37 41 43 43 45 42 41 44
20 19 17 19 27 30 30 34 39 46 41 36 29 34 36 41 52 54 49 47 45 61 46 43 41 57 57 48 42 35 39 45 43 49 40 37 33 19 21 27 27 29 30 29 38 41 42 43 44 45 44 44 46 45
19 20 20 20 25 31 32 34 41 46 42 36 32 33 37 41 38 46 56 46 49 47 48 39 42 51 67 64 60 57 50 43 41 40 30 38 38 33 35 34 32 31 30 31 36 38 40 42 42 42 43 44 40 32
18 20 22 24 25 31 35 36 41 46 44 38 33 40 41 41 43 45 48 37 44 44 44 53 47 44 48 46 47 54 58 53 53 57 45 40 42 42 38 32 29 30 33 36 38 40 41 40 41 41 38 30 30 34
18 18 19 22 27 30 38 37 42 48 48 44 41 46 41 43 46 47 52 38 43 49 42 47 42 41 42 43 42 40 36 36 35 32 25 20 26 32 30 31 34 36 38 39 38 38 39 40 37 30 31 36 39 43
21 16 12 17 24 32 37 39 45 49 48 49 46 42 39 39 39 51 54 44 42 45 36 31 35 44 49 47 43 39 31 22 19 21 24 29 35 34 33 36 35 34 33 32 30 31 32 32 34 37 40 42 44 48
22 13 8 14 23 31 37 41 48 49 49 46 43 41 36 35 36 42 46 47 42 37 43 38 40 41 37 35 31 28 27 25 24 25 29 32 32 32 29 25 21 22 21 22 24 27 30 34 36 39 43 46 49 52
21 17 12 12 27 37 41 44 46 49 47 40 43 38 36 36 39 34 46 36 41 44 45 43 38 37 37 32 30 27 23 24 25 24 24 26 23 21 18 18 17 19 23 26 27 29 32 35 39 43 47 51 53 54
22 16 14 14 26 40 43 43 43 45 43 40 44 46 41 41 38 32 44 40 41 44 45 45 38 37 38 34 28 23 19 20 21 20 21 21 20 20 18 20 22 23 24 27 31 35 38 42 47 51 54 55 55 58
22 21 19 18 23 35 37 42 41 45 45 41 37 41 44 46 43 38 44 39 42 45 44 41 41 39 36 30 25 23 25 25 24 23 22 21 22 22 22 23 25 28 31 34 37 40 44 50 54 55 55 59 65 69
41 37 27 29 30 26 30 38 47 52 53 39 35 40 44 45 50 37 41 29 39 43 44 40 40 34 33 33 33 31 27 27 28 28 26 22 22 23 24 26 29 32 35 38 42 46 50 52 56 60 65 70 75 75
38 46 39 34 33 22 30 37 50 51 47 38 40 42 39 36 41 37 43 25 35 37 41 43 36 34 36 35 33 29 28 27 26 26 26 25 25 27 30 33 34 38 41 43 45 48 54 62 66 70 74 74 63 55
40 44 47 41 33 28 28 41 50 48 46 40 40 44 44 36 41 38 40 27 35 39 41 41 37 35 34 31 30 28 23 22 23 21 22 26 31 33 32 35 38 40 42 48 53 56 59 68 72 73 62 45 30 29
37 50 47 38 39 32 30 42 37 55 52 35 29 42 43 36 36 33 34 29 29 30 31 35 32 33 34 32 30 29 30 28 22 23 27 29 30 29 31 35 39 38 40 41 44 50 51 45 33 20 17 21 26 29
45 44 36 42 36 27 29 41 39 48 39 31 43 42 39 35 31 29 30 31 29 28 27 28 30 32 33 31 24 20 21 24 24 20 20 25 30 35 37 43 37 35 32 29 29 26 21 18 19 21 22 23 25 27
39 33 37 36 24 17 25 35 46 39 29 29 44 41 35 32 32 32 30 33 34 33 32 29 25 22 22 22 22 19 14 16 19 23 26 29 31 31 31 29 23 21 21 20 20 22 23 25 25 24 27 29 26 23
38 41 31 22 20 34 41 36 31 29 30 38 28 23 25 28 34 36 33 32 33 33 31 27 23 20 17 15 16 18 19 19 20 23 26 27 28 26 21 18 14 15 19 24 24 24 25 24 24 28 27 24 22 21
26 27 30 25 24 25 24 26 22 24 32 30 26 21 26 35 39 37 36 30 26 23 20 17 15 15 15 15 16 17 19 21 24 24 23 21 21 20 20 18 17 19 23 26 27 26 26 26 27 26 23 21 22 22
22 21 22 18 11 9 11 19 22 26 30 31 32 32 31 33 30 26 23 22 20 19 16 13 11 10 12 15 18 20 23 23 24 24 21 21 23 22 23 23 24 24 27 28 24 23 23 24 24 21 21 21 20 22
11 11 10 12 24 29 33 35 36 34 35 35 31 29 27 26 24 22 21 18 15 12 10 10 11 12 15 19 22 24 25 25 24 25 25 26 24 23 23 22 22 23 24 25 22 19 17 16 19 22 24 25 26 28
25 30 33 32 32 31 31 30 29 28 27 26 25 24 22 20 18 17 16 15 13 14 15 16 18 22 24 23 22 23 23 23 23 26 25 25 25 25 25 24 24 22 22 22 20 20 22 25 27 26 26 26 26 26
25 26 26 25 24 23 23 23 22 20 18 17 16 15 15 15 16 16 17 18 17 18 19 20 21 22 22 20 18 18 19 20 21 21 23 25 25 25 24 26 26 23 24 25 24 23 24 25 25 24 24 24 25 26
20 20 20 19 20 20 21 21 19 16 14 14 16 17 18 18 17 17 17 18 19 21 22 22 23 22 21 19 18 20 21 23 26 27 26 25 26 27 26 23 22 24 25 25 25 26 25 23 25 27 28 29 29 29
Wind_Direction
223 233 233 233 238 239 234 234 229 223 222 222 221 222 217 211 210 204 185 198 193 211 209 205 199 212 209 209 209 203 202 208 207 214 220 219 221 217 220 217 210 210 217 219 220 230 238 246 237 248 252 257 260 265
230 230 231 235 238 238 234 230 227 222 218 224 224 224 213 202 211 211 199 194 192 201 192 201 200 211 210 210 209 202 206 204 219 221 218 205 205 214 224 226 218 227 235 225 230 230 233 236 240 243 256 258 260 264
226 228 232 236 237 237 229 228 223 223 225 227 230 220 221 206 205 203 202 205 213 210 217 211 207 198 196 203 207 203 208 210 216 218 213 208 214 211 222 232 231 239 229 220 227 242 245 243 250 252 256 265 268 269
228 231 234 237 236 235 234 223 218 219 220 227 228 222 223 217 200 200 207 200 213 212 213 210 207 203 203 192 194 208 208 213 218 217 217 219 222 220 221 229 237 238 235 226 244 242 240 238 248 255 259 260 264 271
230 234 239 243 243 237 232 222 216 219 222 225 221 220 220 219 208 207 198 196 202 210 222 217 222 224 219 204 184 206 214 208 215 216 216 226 225 217 228 233 238 242 242 248 247 239 236 235 242 248 250 254 260 268
237 241 243 243 240 234 224 220 211 216 221 210 203 210 218 211 200 200 213 214 202 212 195 205 214 218 219 210 197 214 212 213 223 223 226 225 218 244 236 234 237 249 245 231 228 235 241 244 251 257 256 260 268 273
235 238 236 232 230 226 216 210 207 212 209 205 205 202 212 204 194 189 197 209 210 211 204 209 223 217 208 210 217 215 216 229 224 227 236 231 234 233 230 231 234 230 236 236 236 229 251 271 272 269 267 269 272 278
230 229 228 228 227 222 213 207 206 212 210 210 213 207 210 204 192 194 184 191 198 208 214 210 214 212 210 206 213 208 192 216 227 232 221 215 208 210 212 216 219 225 236 245 247 249 260 268 267 270 277 282 287 287
228 229 229 227 224 219 210 203 205 206 209 207 210 207 211 196 181 182 182 183 199 199 197 214 218 210 208 209 224 219 202 207 210 216 209 210 213 209 217 221 225 223 235 242 247 258 265 265 267 271 280 285 285 285
224 225 227 223 217 213 206 201 202 203 204 198 201 208 208 206 198 193 194 203 189 192 207 214 219 211 211 211 222 231 231 237 213 211 220 226 228 221 235 235 236 244 242 244 249 253 256 261 269 283 286 286 285 280
213 216 221 218 210 207 204 199 204 204 205 196 191 199 205 206 201 190 195 196 204 197 196 198 205 206 210 213 223 227 221 224 218 222 226 225 214 209 214 238 259 264 258 258 259 267 269 277 286 287 286 284 282 283
208 210 211 209 205 204 202 199 201 199 199 199 191 190 198 204 198 196 191 195 204 207 202 196 199 198 198 200 197 203 217 222 218 212 212 211 203 210 272 283 281 255 255 264 265 269 275 277 279 280 280 280 280 280
204 209 213 206 201 202 200 197 194 193 195 194 191 191 189 200 199 204 198 193 195 203 210 208 200 201 208 219 222 216 216 225 236 235 219 210 213 264 278 269 258 257 270 268 268 269 269 271 271 272 275 276 275 272
212 221 225 221 207 200 200 197 193 191 191 192 196 186 193 202 199 208 200 191 198 208 212 206 210 207 207 218 230 237 242 246 253 258 254 263 272 268 264 261 258 261 262 261 260 262 265 267 271 274 274 270 276 287
215 222 225 223 213 201 197 196 189 191 193 194 199 190 191 200 203 208 204 192 188 201 199 203 214 222 226 228 227 231 235 252 260 264 258 245 239 242 247 256 254 253 254 257 259 264 269 272 274 271 275 283 287 290
210 215 226 214 205 194 190 192 186 189 192 198 202 189 188 193 200 209 212 204 198 190 187 195 206 211 214 221 230 242 248 246 239 243 236 226 227 241 249 242 245 251 256 260 264 269 271 272 272 277 283 287 290 291
204 201 212 200 188 184 184 186 185 187 185 190 200 189 185 190 196 203 209 213 202 193 191 196 203 207 210 214 222 228 230 234 229 216 217 219 227 228 235 241 243 246 257 266 262 260 265 272 279 285 288 287 288 289
196 200 207 191 181 175 177 184 185 185 181 186 189 181 175 183 196 194 200 206 199 204 212 207 208 213 217 218 217 219 221 217 212 210 212 216 217 217 226 235 245 256 254 252 260 271 277 282 284 284 285 285 287 287
201 191 200 187 182 176 177 182 185 184 185 183 182 177 163 171 170 178 203 211 199 195 198 200 207 211 210 211 217 211 211 209 205 206 205 209 218 223 232 244 248 256 266 277 280 282 285 286 287 286 284 284 285 287
219 204 199 188 179 184 181 177 177 179 178 170 174 184 167 168 175 172 195 197 200 191 193 198 202 203 206 200 195 199 200 205 208 208 214 222 224 231 240 247 258 269 275 278 282 284 286 286 285 284 285 286 285 285
201 209 193 193 180 181 186 178 174 174 179 162 160 175 150 152 167 176 181 196 192 194 193 193 197 195 196 192 195 200 206 210 212 218 225 233 241 248 254 263 269 272 275 279 281 283 285 286 286 284 282 280 280 284
192 198 188 191 179 177 178 177 172 181 186 172 161 162 156 158 170 180 187 195 189 189 191 192 189 194 199 199 203 205 212 215 221 231 241 247 253 258 259 264 272 278 280 280 281 283 284 282 280 276 274 279 287 293
182 187 181 180 166 185 181 179 182 180 185 175 157 155 160 164 175 177 187 185 181 188 193 196 197 197 202 206 205 205 212 217 227 242 251 254 257 259 266 273 275 277 279 279 281 284 281 276 278 282 290 295 285 280
168 168 169 161 189 190 179 185 185 182 178 171 168 155 156 166 181 192 186 180 178 181 190 193 200 203 204 211 219 221 221 229 240 249 252 256 262 268 273 276 282 289 293 293 285 281 282 284 289 290 288 284 280 280
154 158 173 182 188 190 186 187 187 194 186 171 163 158 158 164 173 178 176 177 174 175 181 192 197 203 211 213 213 223 235 241 245 249 259 263 267 272 276 285 293 296 299 306 312 309 301 294 298 292 288 294 295 291
157 168 190 186 175 187 174 189 194 188 179 174 160 155 153 161 174 174 178 179 179 181 185 189 192 199 206 214 221 222 230 246 259 268 272 276 283 289 295 300 300 296 305 312 306 296 288 287 289 291 297 293 295 294
180 181 188 192 179 171 177 179 183 182 174 165 149 157 162 177 183 182 183 182 188 190 191 190 189 195 201 210 224 237 252 270 284 289 294 299 301 299 294 295 289 289 293 295 291 284 281 288 294 299 299 294 289 289
178 162 149 147 153 171 178 183 180 196 178 167 172 179 185 176 179 184 178 168 159 163 171 181 194 211 229 245 262 277 288 291 296 298 292 288 284 288 287 268 268 283 294 296 294 289 285 290 295 297 293 285 283 287
188 172 166 168 185 217 191 162 148 155 158 157 166 178 165 161 162 159 159 166 176 185 192 205 227 246 271 281 282 288 290 286 285 281 283 286 287 280 272 264 274 287 292 293 294 291 285 285 289 289 292 291 289 290
172 178 193 180 152 148 141 138 139 140 142 137 138 146 155 164 168 173 180 189 198 212 228 228 236 260 276 278 275 272 274 275 277 276 277 274 269 273 270 272 277 289 294 294 292 286 286 290 294 294 293 291 287 284
148 150 144 143 145 145 140 137 138 141 147 153 158 165 172 176 185 192 198 209 222 226 231 238 248 261 263 261 265 270 269 267 265 252 258 264 263 267 269 272 278 290 297 295 287 282 284 290 295 295 292 289 288 286
158 153 149 147 148 150 154 157 158 161 163 171 181 188 196 202 209 219 227 233 235 241 248 249 250 250 252 252 251 252 256 265 268 267 265 266 266 265 272 274 278 283 291 294 292 292 294 298 298 296 297 298 299 299
177 176 176 176 175 176 179 184 185 190 200 206 209 211 216 222 227 230 231 231 233 232 233 238 240 243 245 251 258 264 271 272 275 279 281 277 269 265 260 261 271 280 287 289 289 289 288 294 301 300 295 295 297 297